Location: Donzy-le-Pr�
(47.3659°N, 3.1107°E)
Time: 17:39:47
(UTC+00:00)

Meteor 1-13 Rocket - Pass Details

Date: 03 March 2021
Orbit: 830 x 913 km, 81.3° (Epoch: 22 April)

Event Time Altitude Azimuth Distance (km) Brightness Sun altitude
Rises 19:35:13 0° 348° (NNW) 3,559 7.8 -20.9°
Reaches altitude 10° 19:37:42 10° 348° (NNW) 2,610 7.1 -21.3°
Maximum altitude 19:43:41 86° 260° (W) 913 4.3 -22.3°
Enters shadow 19:48:26 16° 173° (S) 2,144 6.1 -23.1°
